This is the latest recevied weather packets stored in our database for station/object LU3GHF-13. If no packets are shown the sender has not sent any weather packets the latest 10 day(s).
| Time | Temp. | Humidity | Pressure | Rain* | Wind** | Luminosity | Snow |
|---|---|---|---|---|---|---|---|
| 1788491894 | 21.67° C | 72% | 1009.9 hPa | - | - | - | - |
| 1788491262 | 21.11° C | 74% | 1010 hPa | - | - | - | - |
| 1788490632 | 21.67° C | 72% | 1009.9 hPa | - | - | - | - |
| 1788490015 | 21.67° C | 72% | 1009.7 hPa | - | - | - | - |
| 1788489401 | 21.11° C | 73% | 1009.8 hPa | - | - | - | - |
| 1788488767 | 21.67° C | 73% | 1009.9 hPa | - | - | - | - |
| 1788488140 | 21.67° C | 72% | 1009.8 hPa | - | - | - | - |
| 1788487539 | 21.67° C | 73% | 1009.6 hPa | - | - | - | - |
| 1788486922 | 21.67° C | 73% | 1009.4 hPa | - | - | - | - |
| 1788485682 | 21.67° C | 74% | 1008.7 hPa | - | - | - | - |
| 1788485072 | 21.67° C | 73% | 1008.5 hPa | - | - | - | - |
| 1788484416 | 21.11° C | 75% | 1008.3 hPa | - | - | - | - |
| 1788483813 | 22.22° C | 74% | 1007.8 hPa | - | - | - | - |
| 1788483169 | 21.67° C | 76% | 1007.8 hPa | - | - | - | - |
| 1788482561 | 22.22° C | 75% | 1007.7 hPa | - | - | - | - |
| 1788481920 | 22.22° C | 75% | 1007.6 hPa | - | - | - | - |
| 1788481282 | 22.22° C | 75% | 1007.5 hPa | - | - | - | - |
| 1788480668 | 22.78° C | 74% | 1007.3 hPa | - | - | - | - |
| 1788480017 | 22.78° C | 76% | 1007.1 hPa | - | - | - | - |
| 1788479402 | 23.33° C | 75% | 1007 hPa | - | - | - | - |
| 1788478788 | 23.89° C | 74% | 1006.7 hPa | - | - | - | - |
| 1788478141 | 23.89° C | 75% | 1006.4 hPa | - | - | - | - |
| 1788477510 | 24.44° C | 75% | 1006.1 hPa | - | - | - | - |
| 1788476853 | 25° C | 74% | 1005.8 hPa | - | - | - | - |
| 1788476229 | 25° C | 73% | 1005.6 hPa | - | - | - | - |
* Rain since midnight (hover to see other rain measurements)
** Current wind speed in m/s (hover to see current wind gust speed)